Weather History for KHJO - October, 2012

Change the Weather History Date:

Saturday, October 27, 2012

  Actual Average Record
Temperature  
Mean Temperature 58 °F 59 °F  
Max Temperature 76 °F 74 °F 87 °F (2003)
Min Temperature 40 °F 45 °F 35 °F (2010)
Degree Days  
Heating Degree Days 7    
Month to date heating degree days 76  
Since 1 July heating degree days 76  
Cooling Degree Days 0    
Month to date cooling degree days 95  
Year to date cooling degree days 2018  
Growing Degree Days 8 (Base 50)    
Moisture  
Dew Point 45 °F    
Average Humidity 68    
Maximum Humidity 100    
Minimum Humidity 36    
Precipitation  
Precipitation 0.00 in 0.03 in 0.23 in (2000)
Month to date precipitation 0.14 0.37  
Year to date precipitation 4.72 7.34  
Since 1 July precipitation 0.14 0.58  
Snow  
Snow 0.00 in - - ()
Month to date snowfall 0.0  
Since 1 July snowfall 0.0  
Since 1 September snowfall 0.0  
Snow Depth 0.00 in    
Sea Level Pressure  
Sea Level Pressure 30.05 in    
Wind  
Wind Speed 1 mph (NNE)    
Max Wind Speed 8 mph    
Max Gust Speed 13 mph    
Visibility 6 miles    
Events      
T = Trace of Precipitation, MM = Missing Value Source: NWS Daily Summary

Daily Weather History Graph

Daily Weather History Graph

Search for Another Location

Airport or City:

Trip Planner

Search our weather history database for the weather conditions in past years. The results will help you decide how hot, cold, wet, or windy it might be!

Date:

Astronomy

Oct. 27, 2012 Rise Set
Actual Time 7:17 AM PDT 6:06 PM PDT
Civil Twilight 6:50 AM PDT 6:33 PM PDT
Nautical Twilight 6:20 AM PDT 7:03 PM PDT
Astronomical Twilight 5:50 AM PDT 7:33 PM PDT
Moon 4:53 PM PDT (10/27) 5:19 AM PDT (10/27)
Length of Visible Light 11h 42m
Length of Day
10h 49m
Waxing Gibbous, 96% of the Moon is Illuminated
Oct 27
Waxing Gibbous
Oct 29
Full
Nov 6
Last Quarter
Nov 13
New
Nov 20
First Quarter

Hourly Weather History & Observations

Time (PDT) Temp. Windchill Dew Point Humidity Pressure Visibility Wind Dir Wind Speed Gust Speed Precip Events Conditions
12:53 AM 48.0 °F - 44.1 °F 86% 30.10 in 7.0 mi SE 3.5 mph - N/A   Clear
1:53 AM 45.0 °F - 42.1 °F 90% 30.09 in 6.0 mi Calm Calm - N/A   Clear
2:53 AM 45.0 °F - 41.0 °F 86% 30.09 in 6.0 mi Calm Calm - N/A   Clear
3:53 AM 43.0 °F - 42.1 °F 97% 30.07 in 5.0 mi Calm Calm - N/A   Clear
4:53 AM 41.0 °F - 39.0 °F 93% 30.08 in 4.0 mi Calm Calm - N/A   Clear
5:53 AM 43.0 °F - 41.0 °F 93% 30.08 in 4.0 mi Calm Calm - N/A   Clear
6:53 AM 43.0 °F - 41.0 °F 93% 30.08 in 4.0 mi Calm Calm - N/A   Clear
7:53 AM 43.0 °F 41.3 °F 41.0 °F 93% 30.10 in 3.0 mi ENE 3.5 mph - N/A   Clear
8:53 AM 50.0 °F - 45.0 °F 83% 30.10 in 5.0 mi Calm Calm - N/A   Haze
9:53 AM 57.0 °F - 46.0 °F 67% 30.10 in 6.0 mi Calm Calm - N/A   Haze
10:53 AM 62.1 °F - 46.9 °F 58% 30.09 in 6.0 mi Calm Calm - N/A   Haze
11:53 AM 66.9 °F - 48.0 °F 51% 30.07 in 6.0 mi WSW 3.5 mph - N/A   Haze
12:53 PM 72.0 °F - 46.9 °F 41% 30.04 in 7.0 mi NNW 3.5 mph - N/A   Clear
1:53 PM 72.0 °F - 46.9 °F 41% 30.02 in 7.0 mi West 4.6 mph - N/A   Clear
2:53 PM 75.0 °F - 46.9 °F 37% 30.00 in 7.0 mi Variable 6.9 mph - N/A   Clear
3:53 PM 75.0 °F - 46.0 °F 36% 29.98 in 8.0 mi Variable 3.5 mph - N/A   Clear
4:53 PM 75.0 °F - 46.9 °F 37% 29.97 in 8.0 mi Calm Calm - N/A   Clear
5:53 PM 71.1 °F - 46.9 °F 42% 29.96 in 7.0 mi Calm Calm - N/A   Clear
6:53 PM 66.9 °F - 46.0 °F 47% 29.99 in 9.0 mi Calm Calm - N/A   Clear
7:53 PM 57.9 °F - 46.9 °F 67% 29.99 in 7.0 mi Calm Calm - N/A   Clear
9:53 PM 52.0 °F - 46.0 °F 80% 30.01 in 9.0 mi ENE 3.5 mph - N/A   Clear
11:53 PM 52.0 °F - 46.9 °F 83% 30.02 in 6.0 mi Calm Calm - N/A   Haze